Home > Weather > Sochi > Past weeks

Flag for Russia Past Weather in Sochi, Russia — Yesterday and Last 2 Weeks

Now
75 °F

Passing clouds.


Feels Like: 76 °F
Forecast: 67 / 84 °F
Wind: 1 mph from Northeast

Location: Adler

Current Time: Jul 27, 2016 at 10:18:41 PM

Latest Report: Jul 27, 2016 at 9:30 PM


Visibility: N/A

Pressure: 29.83 "Hg

Humidity: 78%

Dew Point: 68 °F

Location of SochiLocation

Past Weather in Sochi — Graph

°F

Sochi Temperature Yesterday

Maximum temperature yesterday: 81 °F (at 11:30 AM)
Minimum temperature yesterday: 66 °F (at 3:30 AM)
Average temperature yesterday: 74 °F

High & Low Weather Summary for the Past Weeks

 TemperatureHumidityPressure
High90 °F (Jul 18, 10:30 AM)94% (Jul 19, 6:00 AM)30.04 "Hg (Jul 19, 6:00 AM)
Low64 °F (Jul 25, 5:00 AM)43% (Jul 13, 4:00 PM)29.65 "Hg (Jul 17, 7:30 PM)
Average76 °F71%29.83 "Hg
* Reported Jul 12 9:00 PM — Jul 27 9:00 PM, Sochi, Weather by CustomWeather, © 2016

Note: Actual official high and low records may vary slightly from our data, if they occured in-between our weather recording intervals... More about our weather records

Advertising

Sochi Weather History for the Previous 24 Hours

Scroll right to see more
 ConditionsComfort  
Time TempWeatherWind HumidityBarometerVisibility
9:00 PM
Wed, Jul 27
77 °FPassing clouds.3 mph74%29.83 "HgN/A
8:30 PM77 °FPassing clouds.6 mph74%29.83 "HgN/A
8:00 PM79 °FPassing clouds.6 mph70%29.83 "HgN/A
7:30 PM79 °FPassing clouds.8 mph70%29.83 "HgN/A
7:00 PM79 °FPassing clouds.6 mph65%29.83 "HgN/A
6:30 PM81 °FPassing clouds.8 mph62%29.83 "HgN/A
6:00 PM81 °FPassing clouds.8 mph62%29.83 "HgN/A
5:30 PM81 °FPassing clouds.8 mph62%29.83 "HgN/A
5:00 PM81 °FPassing clouds.10 mph62%29.83 "HgN/A
4:30 PM81 °FPassing clouds.8 mph62%29.83 "HgN/A
4:00 PM81 °FPassing clouds.8 mph62%29.83 "HgN/A
3:30 PM81 °FPassing clouds.8 mph62%29.83 "HgN/A
3:00 PM81 °FPassing clouds.10 mph62%29.86 "HgN/A
2:30 PM82 °FPassing clouds.8 mph58%29.86 "HgN/A
2:00 PM82 °FPassing clouds.8 mph55%29.86 "HgN/A
1:30 PM82 °FPassing clouds.8 mph58%29.86 "HgN/A
1:00 PM82 °FPassing clouds.8 mph58%29.86 "HgN/A
12:30 PM81 °FPassing clouds.6 mph62%29.86 "HgN/A
12:00 PM81 °FPassing clouds.6 mph62%29.86 "HgN/A
11:00 AM79 °FScattered clouds.8 mph61%29.86 "HgN/A
10:30 AM81 °FScattered clouds.6 mph58%29.86 "HgN/A
10:00 AM81 °FScattered clouds.6 mph62%29.89 "HgN/A
9:30 AM81 °FScattered clouds.3 mph62%29.89 "HgN/A
9:00 AM79 °FScattered clouds.3 mph65%29.86 "HgN/A
8:30 AM79 °FClear.3 mph61%29.86 "HgN/A
8:00 AM77 °FWarm.6 mph61%29.86 "HgN/A
7:30 AM75 °FPassing clouds.6 mph65%29.86 "HgN/A
7:00 AM72 °FPassing clouds.8 mph73%29.86 "HgN/A
6:30 AM72 °FScattered clouds.8 mph73%29.86 "HgN/A
6:00 AM70 °FScattered clouds.8 mph78%29.89 "HgN/A
5:30 AM68 °FScattered clouds.8 mph83%29.86 "HgN/A
5:00 AM70 °FPassing clouds.8 mph83%29.86 "HgN/A
4:30 AM70 °FPassing clouds.8 mph83%29.86 "HgN/A
4:00 AM70 °FPassing clouds.8 mph83%29.86 "HgN/A
3:30 AM70 °FPassing clouds.6 mph83%29.86 "HgN/A
3:00 AM70 °FPassing clouds.8 mph83%29.86 "HgN/A
2:30 AM70 °FPassing clouds.8 mph88%29.86 "HgN/A
2:00 AM72 °FPassing clouds.6 mph83%29.86 "HgN/A
1:30 AM72 °FPassing clouds.6 mph83%29.86 "HgN/A
1:00 AM72 °FPassing clouds.3 mph83%29.86 "HgN/A
12:30 AM72 °FPassing clouds.3 mph83%29.86 "HgN/A
12:00 AM72 °FPassing clouds.6 mph83%29.86 "HgN/A
11:30 PM
Tue, Jul 26
72 °FPassing clouds.6 mph83%29.86 "HgN/A
11:00 PM73 °FPassing clouds.3 mph78%29.86 "HgN/A
10:30 PM73 °FPassing clouds.3 mph78%29.86 "HgN/A
10:00 PM73 °FPassing clouds.6 mph78%29.86 "HgN/A
Weather by CustomWeather, © 2016

See weather overviewHow to use our weather pages